GFSNE_prec_precacc_159.txt.gz
Total_Precipitation_Accumulation
1.92 2.15 2.14 1.76 1.50 1.19 1.16 1.28 1.59 1.22 0.52 0.28 0.41 0.51 0.60 0.70 0.53 0.63 0.65 0.56 0.58 0.51 0.45 0.41 0.46 0.44 0.32 0.29 0.23 0.16 0.12 0.15 0.20 0.22 0.22 0.25 0.27 0.36
1.71 1.87 1.96 2.00 1.94 1.91 1.92 1.74 1.90 2.01 1.56 0.53 0.45 0.37 0.41 0.48 0.57 0.76 0.65 0.63 0.69 0.76 0.83 0.68 0.43 0.41 0.43 0.41 0.35 0.29 0.25 0.24 0.24 0.27 0.26 0.25 0.27 0.29
1.89 1.86 1.88 1.83 2.10 2.13 2.01 1.93 1.76 1.83 1.66 0.90 0.86 0.78 0.67 0.56 0.50 0.61 0.65 0.68 0.71 0.84 0.96 1.09 0.99 0.80 0.67 0.67 0.57 0.38 0.29 0.31 0.36 0.36 0.31 0.30 0.28 0.26
1.73 2.01 2.23 2.06 1.91 1.66 1.73 2.06 1.90 1.66 1.88 1.62 1.44 1.44 1.19 0.94 0.86 0.79 0.70 0.68 0.69 0.84 0.86 1.06 1.21 1.04 1.00 1.08 1.13 0.87 0.55 0.39 0.31 0.32 0.35 0.32 0.33 0.33
1.90 1.87 1.92 2.19 2.25 2.08 1.86 1.59 1.55 1.66 1.63 1.62 1.56 1.63 1.80 1.42 1.47 1.64 1.57 1.36 1.36 1.13 0.87 0.84 0.94 1.11 1.13 1.12 1.11 1.05 0.91 0.76 0.70 0.68 0.70 0.68 0.55 0.55
1.48 1.70 1.74 1.85 2.18 2.34 2.44 2.38 2.08 1.87 1.70 1.75 1.74 1.77 1.74 1.82 1.73 1.85 2.31 2.07 1.63 1.28 1.15 1.15 1.21 1.05 1.01 1.00 1.06 0.97 0.93 0.92 0.84 0.79 0.76 0.94 1.03 0.86
1.70 1.52 1.77 2.05 2.06 2.03 2.27 2.51 2.66 2.61 2.62 2.51 2.37 2.37 2.04 1.44 1.49 1.61 2.02 2.03 1.99 1.82 1.60 1.47 1.46 1.55 1.51 1.39 1.23 1.16 1.04 1.03 0.97 0.91 0.94 0.98 1.26 1.45
2.19 1.99 1.92 2.19 2.12 2.25 2.32 2.29 2.34 2.66 2.61 2.48 2.51 2.41 2.14 2.09 1.94 1.85 2.02 2.25 2.13 1.76 1.71 1.64 1.56 1.50 1.51 1.53 1.81 1.59 1.41 1.40 1.32 1.13 0.98 0.93 0.94 1.18
1.96 2.02 1.91 1.92 1.83 1.49 1.85 1.90 1.89 2.15 2.43 2.32 2.29 2.27 2.28 2.23 2.16 2.27 2.26 2.35 2.42 2.29 2.27 2.29 2.12 2.07 1.89 1.81 2.03 1.50 1.48 1.49 1.43 1.29 1.15 1.06 0.98 0.97
0.83 0.79 0.76 0.80 1.21 1.25 1.20 1.53 1.82 2.16 2.45 2.62 2.88 3.12 3.09 2.73 2.62 2.54 2.32 2.28 2.14 2.13 2.38 2.80 2.59 2.57 2.27 2.05 2.56 1.75 1.49 1.64 1.81 1.73 1.51 1.34 1.20 1.21
0.73 0.79 0.87 0.66 1.30 1.13 0.72 0.86 1.13 1.37 1.93 2.02 2.06 2.19 2.23 2.02 1.85 1.99 2.51 2.86 2.80 2.33 2.07 2.15 2.15 2.43 2.46 2.26 2.20 2.35 1.90 1.76 1.74 1.87 1.95 1.88 1.64 1.52
0.90 0.99 1.62 1.24 1.63 1.29 1.12 1.12 1.34 1.45 1.41 1.43 1.48 1.45 1.35 1.35 1.64 1.42 1.62 2.37 2.88 2.82 2.35 2.38 2.22 2.28 2.58 2.47 2.21 2.00 1.84 1.96 1.98 1.93 1.83 1.86 1.75 1.36
1.29 1.24 1.38 1.89 1.32 1.32 1.38 1.33 1.99 1.95 2.00 1.60 1.51 1.56 1.43 1.30 1.29 1.38 1.46 1.85 2.28 2.30 2.17 2.54 2.31 2.19 2.41 2.18 1.84 1.65 1.52 1.67 1.72 1.79 1.81 1.79 1.71 1.58
1.53 1.71 2.08 2.04 1.51 1.45 1.56 2.09 2.36 1.94 1.55 1.53 1.53 1.57 1.59 1.63 1.64 1.61 1.66 1.69 1.77 1.89 1.87 2.01 2.04 1.75 1.73 1.65 1.41 1.27 1.21 1.15 1.13 1.26 1.49 1.63 1.68 1.61
1.62 1.94 1.98 1.72 1.54 1.61 1.91 2.04 2.08 2.18 2.42 2.55 2.56 2.46 2.22 1.97 1.73 1.64 1.52 1.49 1.51 1.61 1.61 1.62 1.68 1.62 1.68 1.64 1.40 1.20 1.19 1.07 0.91 0.92 1.20 1.19 1.26 1.24
1.61 1.77 1.76 1.70 1.69 1.86 1.93 1.93 1.99 2.12 2.22 2.34 2.29 2.19 1.99 1.81 1.73 1.70 1.65 1.61 1.61 1.58 1.48 1.43 1.43 1.52 1.55 1.44 1.35 1.24 1.05 1.02 0.95 0.92 1.11 1.40 1.49 1.57
1.66 1.82 1.83 1.77 1.73 1.72 1.66 1.67 1.70 1.68 1.67 1.64 1.56 1.49 1.41 1.30 1.21 1.13 1.17 1.12 1.14 1.01 1.03 1.12 1.10 1.09 1.09 1.17 1.24 1.08 1.02 0.99 1.01 1.20 1.05 1.29 1.47 1.50
1.49 1.51 1.53 1.49 1.45 1.41 1.32 1.22 1.09 1.03 0.94 0.86 0.80 0.73 0.69 0.66 0.60 0.53 0.59 0.61 0.60 0.56 0.57 0.61 0.82 0.76 0.72 0.70 0.79 0.90 0.78 0.72 0.75 0.75 0.78 1.12 1.25 1.61
1.08 1.06 1.03 0.95 0.84 0.72 0.66 0.62 0.63 0.57 0.47 0.44 0.42 0.35 0.29 0.24 0.21 0.22 0.21 0.20 0.20 0.20 0.22 0.31 0.45 0.64 0.73 0.65 0.62 0.47 0.68 0.58 0.56 0.56 0.55 0.72 1.05 1.15
0.62 0.57 0.54 0.47 0.40 0.36 0.33 0.31 0.31 0.27 0.23 0.17 0.16 0.17 0.19 0.22 0.23 0.18 0.16 0.17 0.17 0.17 0.16 0.10 0.15 0.26 0.56 0.78 0.73 0.33 0.34 0.77 0.54 0.48 0.46 0.48 0.56 0.78
0.39 0.37 0.35 0.34 0.35 0.32 0.33 0.31 0.35 0.33 0.33 0.35 0.31 0.34 0.35 0.38 0.35 0.32 0.30 0.23 0.22 0.20 0.14 0.07 0.08 0.13 0.19 0.32 0.53 0.33 0.20 0.32 0.34 0.40 0.41 0.47 0.48 0.46
0.32 0.31 0.29 0.28 0.27 0.27 0.27 0.28 0.28 0.27 0.27 0.30 0.25 0.23 0.23 0.24 0.25 0.22 0.20 0.21 0.16 0.16 0.11 0.06 0.07 0.12 0.20 0.28 0.41 0.33 0.25 0.25 0.17 0.16 0.25 0.43 0.61 0.74
0.26 0.22 0.20 0.20 0.19 0.19 0.19 0.20 0.19 0.19 0.21 0.29 0.26 0.25 0.28 0.26 0.23 0.23 0.19 0.16 0.14 0.12 0.12 0.13 0.14 0.16 0.16 0.14 0.20 0.34 0.27 0.26 0.25 0.28 0.32 0.30 0.32 0.29

GFSNE_prec_precacc_162.txt.gz
Total_Precipitation_Accumulation
1.92 2.16 2.14 1.76 1.50 1.19 1.17 1.29 1.61 1.24 0.52 0.28 0.41 0.51 0.60 0.70 0.53 0.63 0.65 0.57 0.58 0.52 0.48 0.45 0.49 0.53 0.65 0.86 0.80 0.47 0.22 0.23 0.25 0.28 0.27 0.28 0.39 0.44
1.71 1.88 1.96 2.00 1.94 1.91 1.92 1.75 1.91 2.02 1.57 0.53 0.45 0.37 0.41 0.48 0.58 0.77 0.68 0.67 0.70 0.78 0.86 0.73 0.48 0.44 0.46 0.46 0.49 0.51 0.38 0.31 0.28 0.31 0.31 0.28 0.29 0.37
1.89 1.87 1.88 1.83 2.11 2.13 2.01 1.94 1.76 1.84 1.67 0.90 0.86 0.78 0.68 0.56 0.53 0.66 0.67 0.69 0.73 0.85 0.98 1.13 1.08 0.91 0.77 0.74 0.61 0.49 0.45 0.46 0.46 0.41 0.35 0.34 0.31 0.29
1.73 2.02 2.23 2.07 1.91 1.66 1.74 2.06 1.90 1.67 1.89 1.62 1.45 1.45 1.20 0.96 0.91 0.87 0.76 0.70 0.70 0.86 0.88 1.09 1.26 1.11 1.09 1.19 1.21 1.20 0.94 0.79 0.71 0.62 0.49 0.36 0.36 0.36
1.90 1.87 1.92 2.19 2.26 2.08 1.86 1.60 1.55 1.66 1.64 1.63 1.56 1.64 1.83 1.49 1.53 1.72 1.70 1.42 1.37 1.16 0.89 0.87 1.01 1.20 1.20 1.18 1.16 1.17 1.13 0.96 0.98 1.15 1.24 0.97 0.61 0.58
1.48 1.70 1.74 1.85 2.18 2.35 2.44 2.39 2.09 1.88 1.70 1.77 1.80 1.80 1.77 1.91 1.84 1.94 2.44 2.18 1.69 1.30 1.17 1.17 1.24 1.08 1.09 1.08 1.11 1.03 0.99 1.04 0.96 0.88 0.92 1.22 1.42 1.13
1.70 1.52 1.77 2.05 2.06 2.03 2.27 2.52 2.67 2.62 2.64 2.54 2.45 2.47 2.12 1.49 1.64 1.81 2.15 2.20 2.20 1.94 1.62 1.47 1.47 1.56 1.52 1.41 1.25 1.17 1.06 1.07 1.06 1.02 1.04 1.08 1.37 1.65
2.19 1.99 1.92 2.19 2.12 2.25 2.32 2.29 2.34 2.66 2.63 2.53 2.66 2.60 2.34 2.29 2.05 2.07 2.24 2.40 2.29 1.99 1.93 1.74 1.59 1.53 1.53 1.54 1.82 1.59 1.41 1.40 1.33 1.20 1.08 1.07 1.11 1.27
1.96 2.02 1.91 1.92 1.83 1.49 1.85 1.90 1.89 2.16 2.45 2.36 2.35 2.43 2.53 2.50 2.39 2.41 2.43 2.56 2.59 2.42 2.36 2.42 2.28 2.19 1.93 1.83 2.03 1.51 1.48 1.49 1.43 1.30 1.17 1.12 1.10 1.15
0.83 0.79 0.76 0.80 1.21 1.25 1.20 1.53 1.82 2.17 2.46 2.65 2.94 3.19 3.21 2.93 2.82 2.73 2.47 2.42 2.28 2.26 2.47 2.86 2.64 2.64 2.31 2.07 2.57 1.76 1.49 1.64 1.81 1.73 1.51 1.35 1.23 1.28
0.73 0.79 0.87 0.66 1.30 1.13 0.72 0.86 1.13 1.37 1.93 2.03 2.08 2.22 2.26 2.05 1.94 2.11 2.63 2.98 2.90 2.41 2.13 2.21 2.20 2.47 2.47 2.27 2.21 2.35 1.90 1.76 1.75 1.87 1.95 1.89 1.67 1.58
0.90 0.99 1.62 1.24 1.63 1.29 1.12 1.12 1.34 1.45 1.41 1.43 1.48 1.45 1.37 1.37 1.65 1.46 1.69 2.45 2.97 2.89 2.41 2.43 2.26 2.31 2.59 2.48 2.22 2.00 1.84 1.96 1.98 1.93 1.83 1.86 1.77 1.41
1.29 1.24 1.38 1.89 1.32 1.32 1.38 1.33 1.99 1.95 2.00 1.60 1.51 1.56 1.43 1.30 1.29 1.38 1.47 1.86 2.30 2.33 2.20 2.56 2.34 2.21 2.43 2.19 1.84 1.65 1.52 1.68 1.72 1.79 1.82 1.79 1.71 1.61
1.53 1.71 2.08 2.05 1.51 1.45 1.56 2.09 2.36 1.94 1.55 1.53 1.53 1.57 1.59 1.63 1.64 1.61 1.66 1.69 1.77 1.89 1.87 2.01 2.04 1.75 1.73 1.65 1.41 1.27 1.21 1.15 1.13 1.26 1.50 1.63 1.68 1.62
1.63 1.94 1.99 1.72 1.54 1.61 1.91 2.04 2.08 2.18 2.42 2.55 2.56 2.46 2.22 1.97 1.73 1.64 1.52 1.49 1.51 1.61 1.61 1.62 1.68 1.62 1.68 1.64 1.40 1.20 1.19 1.07 0.91 0.92 1.20 1.20 1.27 1.24
1.61 1.77 1.76 1.70 1.69 1.86 1.93 1.93 1.99 2.12 2.22 2.34 2.29 2.19 1.99 1.81 1.73 1.70 1.65 1.61 1.61 1.58 1.48 1.43 1.43 1.52 1.55 1.44 1.35 1.24 1.05 1.02 0.95 0.92 1.11 1.40 1.49 1.57
1.66 1.82 1.83 1.77 1.73 1.72 1.66 1.67 1.70 1.68 1.67 1.64 1.56 1.49 1.41 1.30 1.21 1.13 1.17 1.12 1.14 1.01 1.03 1.12 1.10 1.09 1.09 1.17 1.24 1.08 1.02 0.99 1.01 1.20 1.05 1.29 1.47 1.50
1.49 1.51 1.53 1.49 1.45 1.41 1.32 1.22 1.10 1.03 0.94 0.86 0.80 0.73 0.69 0.66 0.60 0.53 0.59 0.61 0.60 0.56 0.57 0.61 0.82 0.76 0.72 0.70 0.79 0.90 0.78 0.72 0.75 0.75 0.78 1.12 1.25 1.61
1.08 1.06 1.03 0.95 0.84 0.72 0.66 0.62 0.63 0.57 0.47 0.44 0.42 0.35 0.29 0.24 0.21 0.22 0.21 0.20 0.20 0.20 0.22 0.31 0.45 0.64 0.73 0.65 0.62 0.47 0.68 0.58 0.56 0.56 0.55 0.72 1.05 1.15
0.62 0.57 0.54 0.47 0.40 0.36 0.33 0.31 0.31 0.27 0.23 0.17 0.16 0.17 0.19 0.22 0.23 0.18 0.16 0.17 0.17 0.17 0.16 0.10 0.15 0.26 0.56 0.78 0.73 0.33 0.34 0.77 0.54 0.48 0.46 0.48 0.56 0.78
0.39 0.37 0.35 0.34 0.35 0.32 0.33 0.31 0.35 0.33 0.33 0.35 0.31 0.34 0.35 0.38 0.35 0.32 0.30 0.23 0.22 0.20 0.14 0.07 0.08 0.13 0.19 0.32 0.53 0.33 0.20 0.32 0.34 0.40 0.41 0.47 0.48 0.46
0.32 0.31 0.29 0.28 0.27 0.27 0.27 0.28 0.28 0.27 0.27 0.30 0.25 0.23 0.23 0.24 0.25 0.22 0.20 0.21 0.16 0.16 0.11 0.06 0.07 0.12 0.20 0.28 0.41 0.33 0.25 0.25 0.17 0.16 0.25 0.43 0.61 0.74
0.26 0.22 0.20 0.20 0.19 0.19 0.19 0.20 0.19 0.19 0.22 0.29 0.26 0.25 0.28 0.26 0.23 0.23 0.19 0.16 0.14 0.12 0.12 0.13 0.14 0.16 0.16 0.14 0.20 0.34 0.27 0.26 0.25 0.28 0.32 0.30 0.32 0.29

GFSNE_prec_precacc_168.txt.gz
Total_Precipitation_Accumulation
1.92 2.16 2.14 1.76 1.50 1.20 1.18 1.31 1.66 1.26 0.52 0.28 0.41 0.51 0.60 0.70 0.55 0.64 0.66 0.59 0.59 0.52 0.48 0.45 0.50 0.54 0.66 0.96 1.29 1.49 1.49 1.39 0.90 0.56 0.52 0.45 0.56 0.73
1.71 1.88 1.96 2.00 1.94 1.91 1.93 1.76 1.93 2.06 1.60 0.53 0.45 0.37 0.41 0.48 0.59 0.78 0.70 0.69 0.71 0.78 0.86 0.73 0.49 0.47 0.47 0.48 0.55 0.66 0.79 0.80 0.89 0.68 0.50 0.45 0.43 0.54
1.89 1.87 1.88 1.83 2.11 2.13 2.01 1.94 1.77 1.85 1.69 0.90 0.86 0.78 0.69 0.57 0.54 0.67 0.70 0.70 0.75 0.87 0.99 1.15 1.10 0.94 0.81 0.76 0.65 0.51 0.48 0.55 0.63 0.62 0.56 0.51 0.47 0.48
1.73 2.02 2.23 2.07 1.91 1.66 1.74 2.06 1.91 1.67 1.90 1.63 1.45 1.45 1.20 0.98 0.92 0.90 0.78 0.75 0.73 0.91 0.92 1.13 1.31 1.15 1.14 1.26 1.28 1.25 0.97 0.80 0.74 0.69 0.62 0.50 0.49 0.46
1.90 1.88 1.92 2.19 2.26 2.09 1.87 1.60 1.56 1.66 1.64 1.64 1.57 1.64 1.83 1.50 1.55 1.75 1.73 1.48 1.43 1.25 0.95 0.93 1.09 1.29 1.28 1.29 1.25 1.24 1.19 1.01 1.01 1.18 1.35 1.29 0.91 0.78
1.48 1.70 1.74 1.85 2.18 2.35 2.45 2.40 2.09 1.88 1.70 1.77 1.80 1.81 1.78 1.92 1.88 1.98 2.51 2.28 1.80 1.39 1.25 1.27 1.33 1.18 1.21 1.18 1.26 1.21 1.09 1.10 1.01 0.92 0.96 1.35 1.73 1.57
1.70 1.52 1.77 2.05 2.06 2.03 2.28 2.53 2.68 2.63 2.64 2.54 2.45 2.48 2.14 1.52 1.70 1.91 2.28 2.34 2.34 2.09 1.76 1.54 1.52 1.64 1.60 1.53 1.40 1.31 1.25 1.22 1.14 1.06 1.08 1.16 1.54 1.87
2.19 1.99 1.92 2.19 2.12 2.25 2.32 2.30 2.35 2.67 2.64 2.53 2.67 2.61 2.37 2.33 2.11 2.19 2.46 2.56 2.46 2.20 2.23 1.95 1.68 1.59 1.67 1.71 1.98 1.76 1.54 1.52 1.50 1.35 1.17 1.12 1.21 1.45
1.96 2.02 1.91 1.92 1.83 1.49 1.85 1.90 1.89 2.16 2.46 2.38 2.37 2.47 2.57 2.58 2.50 2.50 2.58 2.86 2.86 2.66 2.63 2.80 2.66 2.48 2.11 2.01 2.28 1.69 1.61 1.62 1.52 1.41 1.35 1.26 1.21 1.24
0.83 0.79 0.76 0.80 1.21 1.25 1.20 1.53 1.82 2.17 2.46 2.66 2.96 3.22 3.25 2.99 2.92 2.89 2.64 2.64 2.62 2.56 2.75 3.14 2.96 3.07 2.85 2.49 2.83 2.02 1.73 1.77 1.91 1.80 1.59 1.49 1.35 1.41
0.73 0.79 0.87 0.66 1.30 1.13 0.72 0.86 1.13 1.37 1.93 2.03 2.08 2.22 2.26 2.06 1.97 2.16 2.72 3.11 3.04 2.59 2.33 2.47 2.47 2.77 2.75 2.61 2.63 2.69 2.19 2.04 1.93 1.99 2.02 1.93 1.70 1.60
0.90 1.00 1.62 1.24 1.63 1.29 1.12 1.12 1.34 1.45 1.41 1.43 1.48 1.45 1.37 1.37 1.65 1.47 1.72 2.50 3.06 2.98 2.50 2.57 2.43 2.51 2.84 2.67 2.37 2.20 2.06 2.16 2.21 2.13 1.93 1.91 1.80 1.42
1.30 1.25 1.38 1.89 1.32 1.32 1.38 1.33 1.99 1.95 2.00 1.60 1.51 1.56 1.43 1.30 1.30 1.39 1.48 1.88 2.32 2.36 2.24 2.62 2.39 2.30 2.54 2.30 1.91 1.69 1.58 1.75 1.80 1.90 1.94 1.88 1.76 1.63
1.54 1.72 2.08 2.05 1.51 1.45 1.56 2.09 2.36 1.94 1.55 1.53 1.53 1.57 1.59 1.63 1.64 1.61 1.66 1.69 1.78 1.90 1.88 2.02 2.06 1.77 1.75 1.68 1.42 1.28 1.22 1.16 1.16 1.29 1.54 1.70 1.76 1.68
1.63 1.94 1.99 1.72 1.54 1.61 1.91 2.04 2.08 2.18 2.42 2.55 2.56 2.46 2.22 1.97 1.73 1.64 1.52 1.49 1.51 1.61 1.62 1.63 1.69 1.63 1.68 1.65 1.41 1.20 1.19 1.07 0.91 0.92 1.21 1.21 1.29 1.28
1.61 1.77 1.76 1.70 1.69 1.86 1.93 1.93 1.99 2.12 2.22 2.34 2.29 2.19 1.99 1.81 1.73 1.70 1.65 1.61 1.61 1.58 1.48 1.43 1.43 1.52 1.56 1.44 1.35 1.24 1.05 1.02 0.95 0.92 1.11 1.40 1.49 1.57
1.66 1.82 1.83 1.77 1.73 1.72 1.66 1.67 1.70 1.68 1.67 1.64 1.56 1.49 1.41 1.30 1.21 1.13 1.17 1.12 1.14 1.01 1.03 1.12 1.10 1.09 1.09 1.17 1.24 1.08 1.02 0.99 1.01 1.20 1.05 1.29 1.47 1.50
1.49 1.51 1.53 1.49 1.45 1.41 1.32 1.23 1.10 1.03 0.94 0.86 0.80 0.73 0.69 0.66 0.60 0.53 0.59 0.61 0.60 0.56 0.57 0.61 0.82 0.76 0.72 0.70 0.79 0.90 0.78 0.72 0.75 0.75 0.78 1.12 1.25 1.61
1.08 1.06 1.03 0.95 0.84 0.72 0.66 0.62 0.63 0.57 0.47 0.44 0.42 0.35 0.29 0.24 0.21 0.22 0.21 0.20 0.20 0.20 0.22 0.31 0.45 0.64 0.73 0.65 0.62 0.47 0.68 0.58 0.56 0.56 0.55 0.72 1.05 1.15
0.62 0.57 0.54 0.47 0.40 0.36 0.33 0.31 0.31 0.27 0.23 0.17 0.16 0.17 0.19 0.22 0.23 0.18 0.16 0.17 0.17 0.17 0.16 0.10 0.15 0.26 0.56 0.78 0.73 0.33 0.34 0.77 0.54 0.48 0.46 0.48 0.56 0.78
0.39 0.37 0.35 0.34 0.35 0.32 0.33 0.31 0.36 0.34 0.33 0.36 0.32 0.34 0.36 0.38 0.35 0.32 0.30 0.23 0.22 0.20 0.14 0.07 0.08 0.13 0.19 0.32 0.53 0.33 0.20 0.32 0.34 0.40 0.41 0.47 0.48 0.46
0.32 0.31 0.29 0.28 0.28 0.27 0.27 0.28 0.29 0.27 0.28 0.30 0.26 0.23 0.23 0.24 0.25 0.22 0.20 0.21 0.16 0.16 0.11 0.06 0.07 0.12 0.20 0.28 0.41 0.33 0.25 0.25 0.17 0.16 0.25 0.43 0.61 0.74
0.26 0.22 0.20 0.20 0.19 0.19 0.19 0.20 0.19 0.20 0.22 0.30 0.26 0.25 0.28 0.26 0.23 0.23 0.19 0.16 0.14 0.12 0.12 0.13 0.14 0.16 0.16 0.14 0.20 0.34 0.27 0.26 0.25 0.28 0.32 0.30 0.32 0.29

GFSNE_prec_precacc_174.txt.gz
Total_Precipitation_Accumulation
1.92 2.16 2.14 1.76 1.50 1.20 1.18 1.32 1.67 1.28 0.53 0.28 0.41 0.51 0.60 0.70 0.55 0.64 0.68 0.62 0.60 0.52 0.49 0.46 0.51 0.55 0.67 0.97 1.31 1.51 1.62 1.90 1.96 1.64 1.84 2.07 1.74 1.69
1.71 1.88 1.96 2.00 1.94 1.91 1.93 1.76 1.93 2.07 1.62 0.53 0.45 0.37 0.41 0.48 0.60 0.79 0.72 0.72 0.75 0.79 0.87 0.74 0.51 0.49 0.49 0.49 0.56 0.68 0.82 0.86 1.17 1.23 1.14 1.16 1.65 1.97
1.89 1.87 1.88 1.83 2.11 2.13 2.01 1.94 1.77 1.86 1.70 0.90 0.86 0.78 0.69 0.57 0.54 0.68 0.71 0.71 0.76 0.90 1.01 1.17 1.12 0.96 0.83 0.79 0.67 0.55 0.53 0.63 0.73 0.74 0.70 0.68 0.63 1.05
1.73 2.02 2.23 2.07 1.91 1.66 1.74 2.06 1.91 1.67 1.90 1.63 1.45 1.45 1.20 0.98 0.92 0.90 0.79 0.75 0.73 0.92 0.93 1.14 1.33 1.18 1.17 1.29 1.32 1.30 1.03 0.91 0.87 0.82 0.71 0.58 0.53 0.50
1.90 1.88 1.92 2.19 2.26 2.09 1.87 1.60 1.56 1.66 1.64 1.64 1.57 1.64 1.83 1.50 1.55 1.75 1.75 1.49 1.43 1.25 0.96 0.94 1.10 1.31 1.31 1.34 1.30 1.28 1.24 1.09 1.10 1.30 1.49 1.39 0.97 0.80
1.48 1.70 1.74 1.85 2.18 2.35 2.45 2.40 2.09 1.88 1.70 1.77 1.80 1.81 1.78 1.92 1.88 1.99 2.52 2.31 1.81 1.39 1.26 1.28 1.34 1.20 1.22 1.21 1.31 1.29 1.15 1.14 1.09 1.02 1.07 1.45 1.84 1.65
1.70 1.52 1.77 2.05 2.06 2.03 2.28 2.53 2.68 2.63 2.64 2.54 2.45 2.48 2.14 1.52 1.70 1.92 2.30 2.37 2.37 2.10 1.77 1.56 1.54 1.67 1.66 1.57 1.45 1.38 1.33 1.30 1.22 1.14 1.16 1.26 1.62 2.00
2.20 1.99 1.92 2.19 2.12 2.25 2.32 2.30 2.35 2.67 2.65 2.54 2.67 2.62 2.37 2.34 2.11 2.20 2.47 2.58 2.47 2.21 2.25 1.99 1.70 1.62 1.72 1.82 2.09 1.85 1.62 1.61 1.60 1.45 1.27 1.21 1.31 1.55
1.96 2.02 1.91 1.92 1.83 1.49 1.85 1.90 1.89 2.16 2.46 2.39 2.38 2.48 2.58 2.59 2.51 2.51 2.59 2.89 2.92 2.67 2.63 2.83 2.67 2.51 2.16 2.05 2.34 1.75 1.71 1.75 1.63 1.52 1.46 1.38 1.31 1.35
0.83 0.79 0.76 0.80 1.21 1.25 1.20 1.53 1.82 2.17 2.46 2.66 2.96 3.22 3.25 2.99 2.92 2.90 2.65 2.66 2.69 2.58 2.75 3.16 2.97 3.10 2.91 2.53 2.86 2.05 1.80 1.87 2.05 1.97 1.73 1.62 1.48 1.52
0.73 0.79 0.87 0.66 1.30 1.13 0.72 0.86 1.13 1.37 1.93 2.03 2.08 2.22 2.27 2.06 1.97 2.16 2.72 3.11 3.05 2.62 2.34 2.50 2.49 2.79 2.81 2.65 2.65 2.72 2.22 2.11 2.05 2.11 2.21 2.10 1.85 1.76
0.91 1.00 1.62 1.24 1.63 1.29 1.12 1.12 1.34 1.45 1.41 1.43 1.48 1.45 1.37 1.37 1.65 1.48 1.72 2.50 3.06 2.98 2.50 2.58 2.45 2.53 2.89 2.71 2.38 2.21 2.09 2.19 2.27 2.25 2.08 2.08 1.98 1.54
1.30 1.25 1.39 1.89 1.32 1.32 1.38 1.33 1.99 1.95 2.01 1.60 1.51 1.56 1.43 1.31 1.30 1.39 1.48 1.88 2.32 2.36 2.24 2.63 2.41 2.31 2.56 2.32 1.92 1.70 1.61 1.79 1.85 1.96 2.09 2.07 1.90 1.79
1.54 1.72 2.08 2.05 1.51 1.45 1.56 2.09 2.36 1.94 1.55 1.53 1.53 1.57 1.59 1.63 1.64 1.61 1.66 1.69 1.78 1.90 1.88 2.02 2.08 1.79 1.76 1.69 1.43 1.28 1.24 1.19 1.18 1.33 1.58 1.80 1.89 1.82
1.63 1.94 1.99 1.72 1.54 1.61 1.91 2.04 2.08 2.18 2.43 2.56 2.57 2.47 2.22 1.97 1.74 1.64 1.52 1.50 1.51 1.61 1.62 1.63 1.69 1.63 1.68 1.65 1.42 1.21 1.19 1.08 0.92 0.94 1.23 1.26 1.34 1.36
1.61 1.77 1.76 1.70 1.69 1.86 1.94 1.93 2.00 2.13 2.22 2.34 2.30 2.20 1.99 1.81 1.73 1.70 1.65 1.61 1.61 1.58 1.48 1.43 1.43 1.52 1.56 1.44 1.35 1.24 1.05 1.02 0.96 0.92 1.11 1.41 1.51 1.60
1.66 1.82 1.83 1.77 1.73 1.72 1.66 1.67 1.70 1.69 1.67 1.64 1.56 1.49 1.41 1.30 1.21 1.13 1.17 1.12 1.14 1.01 1.03 1.12 1.10 1.09 1.09 1.17 1.24 1.08 1.02 0.99 1.01 1.20 1.05 1.29 1.48 1.51
1.49 1.51 1.53 1.50 1.46 1.41 1.32 1.23 1.10 1.03 0.94 0.86 0.80 0.73 0.69 0.66 0.60 0.53 0.59 0.61 0.60 0.56 0.57 0.61 0.82 0.76 0.72 0.70 0.79 0.90 0.78 0.72 0.75 0.75 0.78 1.12 1.25 1.61
1.08 1.06 1.03 0.95 0.84 0.72 0.66 0.62 0.63 0.57 0.47 0.44 0.42 0.35 0.29 0.24 0.21 0.22 0.21 0.20 0.20 0.20 0.22 0.31 0.45 0.64 0.73 0.65 0.62 0.47 0.68 0.58 0.56 0.56 0.55 0.72 1.05 1.15
0.62 0.57 0.54 0.47 0.40 0.36 0.33 0.31 0.32 0.27 0.24 0.18 0.16 0.17 0.19 0.22 0.23 0.18 0.16 0.17 0.17 0.17 0.16 0.10 0.15 0.26 0.56 0.78 0.73 0.33 0.34 0.77 0.54 0.48 0.46 0.48 0.56 0.78
0.39 0.37 0.35 0.34 0.35 0.32 0.34 0.31 0.36 0.34 0.34 0.36 0.32 0.35 0.36 0.39 0.35 0.32 0.30 0.23 0.22 0.20 0.14 0.07 0.08 0.13 0.19 0.32 0.53 0.33 0.20 0.32 0.34 0.40 0.41 0.47 0.48 0.46
0.32 0.31 0.29 0.28 0.28 0.27 0.28 0.29 0.29 0.28 0.28 0.31 0.26 0.24 0.23 0.25 0.25 0.22 0.20 0.21 0.16 0.16 0.11 0.06 0.07 0.12 0.20 0.28 0.41 0.33 0.25 0.25 0.17 0.16 0.25 0.44 0.61 0.75
0.26 0.22 0.20 0.20 0.19 0.19 0.19 0.21 0.20 0.20 0.22 0.30 0.27 0.26 0.29 0.26 0.23 0.23 0.19 0.16 0.14 0.12 0.12 0.13 0.14 0.16 0.16 0.14 0.20 0.34 0.27 0.26 0.25 0.28 0.32 0.30 0.32 0.29

GFSNE_prec_precacc_180.txt.gz
Total_Precipitation_Accumulation
1.92 2.16 2.14 1.76 1.50 1.20 1.18 1.32 1.67 1.28 0.53 0.28 0.41 0.51 0.60 0.70 0.55 0.65 0.68 0.63 0.62 0.53 0.50 0.47 0.52 0.56 0.69 0.99 1.33 1.54 1.64 1.92 1.97 1.65 1.89 2.40 2.50 2.39
1.71 1.88 1.96 2.00 1.94 1.91 1.93 1.76 1.93 2.07 1.62 0.53 0.45 0.37 0.41 0.48 0.60 0.79 0.74 0.73 0.76 0.80 0.89 0.75 0.52 0.50 0.50 0.51 0.58 0.70 0.84 0.87 1.18 1.24 1.15 1.18 1.71 2.26
1.89 1.87 1.88 1.83 2.11 2.13 2.01 1.94 1.77 1.86 1.70 0.90 0.86 0.78 0.69 0.57 0.54 0.68 0.72 0.71 0.76 0.90 1.02 1.18 1.12 0.97 0.85 0.80 0.69 0.57 0.55 0.64 0.74 0.74 0.71 0.70 0.67 1.09
1.73 2.02 2.23 2.07 1.91 1.66 1.74 2.06 1.91 1.67 1.90 1.63 1.45 1.45 1.20 0.98 0.92 0.90 0.80 0.76 0.73 0.92 0.93 1.15 1.34 1.19 1.19 1.31 1.34 1.32 1.06 0.94 0.88 0.83 0.73 0.61 0.59 0.59
1.90 1.88 1.92 2.19 2.26 2.09 1.87 1.60 1.56 1.66 1.64 1.64 1.57 1.64 1.83 1.50 1.55 1.75 1.75 1.49 1.43 1.25 0.96 0.94 1.11 1.31 1.32 1.35 1.31 1.30 1.26 1.11 1.14 1.32 1.52 1.44 1.02 0.85
1.48 1.70 1.74 1.85 2.18 2.35 2.45 2.40 2.09 1.88 1.70 1.77 1.80 1.81 1.78 1.92 1.88 1.99 2.53 2.31 1.82 1.39 1.26 1.28 1.34 1.20 1.23 1.22 1.32 1.30 1.17 1.16 1.11 1.05 1.09 1.48 1.90 1.73
1.70 1.52 1.77 2.05 2.06 2.03 2.28 2.53 2.68 2.63 2.64 2.54 2.45 2.48 2.14 1.53 1.70 1.92 2.30 2.37 2.38 2.10 1.77 1.56 1.54 1.68 1.66 1.57 1.45 1.38 1.34 1.32 1.24 1.16 1.18 1.29 1.68 2.07
2.20 1.99 1.92 2.19 2.12 2.25 2.32 2.30 2.35 2.67 2.65 2.54 2.68 2.62 2.38 2.34 2.11 2.20 2.47 2.58 2.48 2.21 2.25 1.99 1.70 1.63 1.73 1.82 2.09 1.85 1.62 1.62 1.62 1.47 1.29 1.23 1.34 1.64
1.96 2.02 1.91 1.92 1.83 1.49 1.85 1.90 1.89 2.16 2.47 2.39 2.38 2.48 2.59 2.60 2.51 2.51 2.59 2.89 2.94 2.67 2.63 2.83 2.67 2.51 2.19 2.05 2.34 1.75 1.71 1.76 1.65 1.54 1.48 1.39 1.33 1.37
0.83 0.79 0.76 0.80 1.21 1.25 1.20 1.53 1.82 2.17 2.46 2.66 2.96 3.22 3.25 2.99 2.92 2.90 2.65 2.66 2.70 2.58 2.75 3.16 2.97 3.10 2.93 2.54 2.86 2.05 1.80 1.87 2.06 1.99 1.75 1.64 1.49 1.54
0.73 0.79 0.87 0.66 1.30 1.13 0.72 0.86 1.13 1.37 1.93 2.03 2.08 2.22 2.27 2.06 1.97 2.16 2.72 3.11 3.05 2.62 2.34 2.50 2.49 2.79 2.82 2.65 2.65 2.72 2.22 2.11 2.05 2.12 2.23 2.13 1.86 1.77
0.91 1.00 1.62 1.24 1.63 1.29 1.12 1.12 1.34 1.45 1.41 1.43 1.48 1.45 1.37 1.37 1.65 1.48 1.72 2.50 3.06 2.98 2.50 2.58 2.45 2.53 2.89 2.71 2.38 2.21 2.09 2.19 2.27 2.25 2.09 2.10 2.00 1.55
1.31 1.25 1.39 1.89 1.32 1.32 1.38 1.33 1.99 1.95 2.01 1.60 1.51 1.56 1.43 1.31 1.30 1.39 1.48 1.88 2.32 2.36 2.24 2.63 2.41 2.31 2.57 2.32 1.92 1.70 1.61 1.79 1.85 1.96 2.09 2.08 1.92 1.82
1.54 1.72 2.08 2.05 1.51 1.45 1.56 2.09 2.36 1.94 1.55 1.53 1.53 1.57 1.59 1.63 1.64 1.61 1.66 1.69 1.78 1.90 1.88 2.02 2.08 1.79 1.76 1.69 1.43 1.28 1.24 1.19 1.18 1.33 1.58 1.80 1.89 1.83
1.63 1.94 1.99 1.72 1.54 1.61 1.91 2.04 2.08 2.18 2.43 2.56 2.57 2.47 2.22 1.97 1.74 1.64 1.52 1.50 1.51 1.61 1.62 1.63 1.69 1.63 1.68 1.65 1.42 1.21 1.19 1.08 0.92 0.94 1.23 1.26 1.35 1.37
1.61 1.77 1.76 1.70 1.69 1.86 1.94 1.93 2.00 2.13 2.22 2.34 2.30 2.20 1.99 1.81 1.73 1.70 1.65 1.61 1.61 1.58 1.48 1.43 1.43 1.52 1.56 1.44 1.35 1.24 1.05 1.02 0.96 0.92 1.11 1.41 1.51 1.60
1.66 1.82 1.83 1.77 1.73 1.72 1.66 1.67 1.70 1.69 1.67 1.64 1.56 1.49 1.41 1.30 1.21 1.13 1.17 1.12 1.14 1.01 1.03 1.12 1.10 1.09 1.09 1.17 1.24 1.08 1.02 0.99 1.01 1.20 1.05 1.29 1.48 1.51
1.49 1.51 1.53 1.50 1.46 1.41 1.32 1.23 1.10 1.03 0.94 0.86 0.80 0.73 0.69 0.66 0.60 0.53 0.59 0.61 0.60 0.56 0.57 0.61 0.82 0.76 0.72 0.70 0.79 0.90 0.79 0.72 0.75 0.75 0.78 1.12 1.25 1.61
1.08 1.06 1.03 0.95 0.84 0.72 0.66 0.62 0.63 0.57 0.47 0.44 0.42 0.35 0.29 0.24 0.21 0.22 0.21 0.20 0.20 0.20 0.22 0.31 0.45 0.64 0.73 0.65 0.62 0.47 0.68 0.58 0.56 0.56 0.55 0.72 1.05 1.15
0.62 0.57 0.54 0.47 0.40 0.36 0.33 0.31 0.32 0.27 0.24 0.18 0.16 0.17 0.19 0.22 0.23 0.18 0.16 0.17 0.17 0.17 0.16 0.10 0.15 0.26 0.56 0.78 0.73 0.33 0.34 0.77 0.54 0.48 0.47 0.49 0.56 0.78
0.39 0.37 0.35 0.34 0.35 0.32 0.34 0.31 0.36 0.34 0.34 0.36 0.32 0.35 0.36 0.39 0.35 0.32 0.30 0.23 0.22 0.20 0.14 0.07 0.08 0.13 0.19 0.32 0.53 0.33 0.20 0.32 0.34 0.40 0.43 0.49 0.48 0.46
0.32 0.31 0.29 0.28 0.28 0.27 0.28 0.29 0.29 0.28 0.28 0.31 0.26 0.24 0.23 0.25 0.25 0.22 0.20 0.21 0.16 0.16 0.11 0.06 0.07 0.12 0.20 0.28 0.41 0.33 0.25 0.25 0.17 0.16 0.25 0.45 0.62 0.78
0.26 0.22 0.20 0.20 0.19 0.19 0.19 0.21 0.20 0.20 0.22 0.30 0.27 0.26 0.29 0.27 0.23 0.23 0.19 0.16 0.14 0.12 0.12 0.13 0.14 0.16 0.16 0.14 0.20 0.34 0.27 0.26 0.25 0.28 0.32 0.30 0.32 0.29